This demonstration page uses our WeatherBlox Daily Observations layout. Learn more.

Left ArrowRight Arrow

Hourly Observations for October 15, 2019

Temp ( °F °C ) Dew Point ( °F °C ) Humidity (%) Winds ( mph kmh ) Pressure ( in mb ) Visibility ( mi km ) Precip ( " mm )
12:53 am 00:53 Mostly Clear 70 21.1 63 17.2 79 79 SW 6 9 29.83 1010 10 16 0.00 0.00
1:53 am 01:53 Clear 69 20.6 64 17.8 84 84 S 3 6 29.83 1010 10 16 0.00 0.00
2:53 am 02:53 Partly Cloudy 69 20.6 63 17.2 81 81 SE 5 7 29.82 1010 10 16 0.00 0.00
3:53 am 03:53 Mostly Clear 67 19.4 63 17.2 87 87 NNE 5 7 29.83 1010 10 16 0.00 0.00
4:53 am 04:53 Mostly Cloudy 67 19.4 63 17.2 87 87 Calm 29.82 1010 10 16 0.00 0.00
5:53 am 05:53 Mostly Clear 65 18.3 62 16.7 90 90 Calm 29.83 1010 10 16 0.00 0.00
6:53 am 06:53 Clear 63 17.2 61 16.1 93 93 S 5 7 29.85 1011 10 16 0.00 0.00
7:53 am 07:53 Clear 63 17.2 60 15.6 90 90 SSW 7 11 29.87 1012 10 16 0.00 0.00
8:53 am 08:53 Partly Cloudy 67 19.4 62 16.7 84 84 W 6 9 29.89 1012 10 16 0.00 0.00
9:53 am 09:53 Sunny 73 22.8 62 16.7 69 69 SW 3 6 29.89 1012 10 16 0.00 0.00
10:53 am 10:53 Sunny 78 25.6 60 15.6 54 54 NNW 6 9 29.89 1012 10 16 0.00 0.00
11:53 am 11:53 Mostly Sunny 79 26.1 59 15 50 50 WNW 6 9 29.90 1013 10 16 0.00 0.00
12:53 pm 12:53 Mostly Sunny 81 27.2 49 9.4 33 33 NNW 9 15 29.88 1012 10 16 0.00 0.00
1:53 pm 13:53 Sunny 82 27.8 52 11.1 35 35 N 8 13 29.87 1011 10 16 0.00 0.00
2:53 pm 14:53 Sunny 82 27.8 50 10 33 33 NW 6 9 29.85 1011 10 16 0.00 0.00
3:53 pm 15:53 Sunny 84 28.9 48 8.9 29 29 VRB 5 7 29.83 1010 10 16 0.00 0.00
4:53 pm 16:53 Partly Cloudy 84 28.9 46 7.8 27 27 VRB 7 11 29.83 1010 10 16 0.00 0.00
5:53 pm 17:53 Sunny 84 28.9 44 6.7 25 25 NW 6 9 29.83 1010 10 16 0.00 0.00
6:53 pm 18:53 Partly Cloudy 83 28.3 43 6.1 24 24 NW 5 7 29.84 1011 10 16 0.00 0.00
7:53 pm 19:53 Mostly Clear 79 26.1 45 7.2 30 30 NNW 3 6 29.87 1012 10 16 0.00 0.00
8:43 pm 20:43 Mostly Clear 76 24.4 36 2.2 23 23 NE 16 26 29.88 1012 10 16 0.00 0.00
8:53 pm 20:53 Mostly Clear 75 23.9 34 1.1 22 22 NE 16 26 29.92 1013 10 16 0.00 0.00
9:53 pm 21:53 Clear 71 21.7 34 1.1 26 26 NE 13 20 29.95 1014 10 16 0.00 0.00
10:53 pm 22:53 Clear 68 20 35 1.7 30 30 NE 16 26 29.98 1015 10 16 0.00 0.00
11:53 pm 23:53 Clear 66 18.9 34 1.1 30 30 NE 15 24 30.02 1017 10 16 0.00 0.00

Powered by AerisWeather